Location: Napa Junction
(38.1874°N, 122.2508°W)
Time: 19:03:21
(UTC+00:00)

COSMOS 2455 - Visible Passes

Search period start: 05 December 2024 00:00
Search period end: 15 December 2024 00:00
Orbit: 900 x 909 km, 67.1° (Epoch: 05 December)

Date Brightness Start Highest point End Pass type
(mag) Time Alt. Az. Time Alt. Az. Time Alt. Az.
05 Dec 5.3 02:33:25 10° NW 02:38:01 23° WSW 02:42:36 10° SSW visible
05 Dec 6.2 14:06:23 10° SE 14:08:50 13° E 14:11:16 10° ENE visible
06 Dec 5.8 02:38:02 10° WNW 02:41:36 16° WSW 02:45:10 10° SW visible
06 Dec 5.9 14:08:27 10° SE 14:12:24 18° ESE 14:16:22 10° ENE visible
07 Dec 6.3 02:43:36 10° W 02:45:10 11° W 02:46:44 10° WSW visible
07 Dec 5.3 14:11:11 10° SSE 14:16:00 26° ESE 14:20:52 10° NE visible
08 Dec 4.7 14:14:16 10° S 14:19:40 36° ESE 14:25:04 10° NE visible
09 Dec 4.0 14:17:35 10° S 14:23:21 49° ESE 14:29:08 10° NE visible
10 Dec 3.3 14:21:07 10° SSW 14:27:04 68° ESE 14:33:05 10° NNE visible
11 Dec 5.6 01:10:20 10° NW 01:15:00 24° WSW 01:19:39 10° SSW visible
11 Dec 6.0 12:43:38 10° ESE 12:45:50 12° E 12:48:02 10° E visible
11 Dec 2.9 14:24:50 10° SSW 14:30:51 88° WNW 14:36:55 10° NNE visible
12 Dec 5.8 01:14:54 10° WNW 01:18:37 17° WSW 01:22:18 10° SW visible
12 Dec 5.5 12:45:33 10° SE 12:49:24 18° ESE 12:53:14 10° ENE visible
12 Dec 2.8 14:28:42 10° SW 14:34:40 66° WNW 14:40:41 10° NNE visible
13 Dec 6.2 01:20:16 10° W 01:22:10 12° W 01:24:03 10° WSW visible
13 Dec 5.0 12:48:14 10° SSE 12:53:00 25° ESE 12:57:46 10° NE visible
13 Dec 3.1 14:32:44 10° SW 14:38:33 49° WNW 14:44:23 10° NNE visible
14 Dec 4.4 12:51:18 10° S 12:56:39 34° ESE 13:02:00 10° NE visible
14 Dec 3.4 14:36:58 10° WSW 14:42:28 37° NW 14:48:00 10° NNE visible
